FW8300 Weather Reports


Display with metric or nautical units.
time (UTC)temp
F
wind
direction
speed
MPH
gust
MPH
rain 1hr
in
rain 24hr
in
rain mn
in
humidity
%
barometer
mb
20260507143046 44 89 2.0 4.0 0.00 0.00 0.00 47 1011.8
20260507141600 44 111 2.0 4.0 0.00 0.00 0.00 46 1011.9
20260507140052 44 119 0.0 3.0 0.00 0.00 0.00 45 1012.0
20260507134549 43 194 1.0 4.0 0.00 0.00 0.00 47 1011.9
20260507133048 42 181 1.0 3.0 0.00 0.00 0.00 49 1011.9
20260507131545 39 0 1.0 3.0 0.00 0.00 0.00 53 1011.7
20260507130043 36 173 1.0 5.0 0.00 0.00 0.00 60 1011.6
20260507124543 32 178 1.0 4.0 0.00 0.00 0.00 67 1011.6
20260507123046 29 0 0.0 2.0 0.00 0.00 0.00 72 1011.4
20260507121545 27 267 1.0 3.0 0.00 0.00 0.00 72 1011.3
20260507120047 27 259 4.0 7.0 0.00 0.00 0.00 73 1011.2
20260507114548 24 272 5.0 7.0 0.00 0.00 0.00 78 1010.8
20260507113044 25 285 3.0 6.0 0.00 0.00 0.00 77 1010.6
20260507111557 25 0 0.0 1.0 0.00 0.00 0.00 77 1010.5
20260507110044 25 200 1.0 3.0 0.00 0.00 0.00 74 1010.5
20260507104549 26 239 1.0 3.0 0.00 0.00 0.00 72 1010.3
20260507103049 27 0 1.0 4.0 0.00 0.00 0.00 72 1010.3
20260507101556 27 292 2.0 4.0 0.00 0.00 0.00 70 1010.4
20260507100049 27 270 4.0 8.0 0.00 0.00 0.00 71 1010.2
20260507094544 29 292 4.0 7.0 0.00 0.00 0.00 67 1010.1
20260507093046 29 303 4.0 6.0 0.00 0.00 0.00 67 1010.0
20260507091549 28 259 3.0 4.0 0.00 0.00 0.00 69 1009.9
20260507090045 28 0 0.0 2.0 0.00 0.00 0.00 68 1010.0
20260507084549 28 256 2.0 6.0 0.00 0.00 0.00 70 1010.1
20260507083055 30 267 2.0 6.0 0.00 0.00 0.00 64 1010.1
20260507081550 31 279 2.0 4.0 0.00 0.00 0.00 63 1010.2
20260507080044 30 252 2.0 6.0 0.00 0.00 0.00 65 1010.3
20260507074552 31 292 1.0 4.0 0.00 0.00 0.00 63 1010.3
20260507073045 32 248 3.0 6.0 0.00 0.00 0.00 59 1010.5
20260507071551 32 252 0.0 0.0 0.00 0.00 0.00 61 1010.7
20260507070051 33 0 0.0 2.0 0.00 0.00 0.00 59 1010.8
20260507064557 32 238 1.0 3.0 0.00 0.00 0.00 60 1010.9
20260507063047 33 248 2.0 4.0 0.00 0.00 0.00 59 1011.0
20260507061546 32 277 4.0 7.0 0.00 0.00 0.00 61 1010.9
20260507060045 37 275 2.0 4.0 0.00 0.00 0.00 51 1010.9
20260507054544 38 254 3.0 7.0 0.00 0.00 0.00 48 1010.8
20260507053045 37 270 6.0 8.0 0.00 0.00 0.00 51 1010.8
20260507051544 37 276 2.0 4.0 0.00 0.00 0.00 50 1010.9
20260507050052 37 271 3.0 6.0 0.00 0.00 0.00 52 1011.0
20260507044546 37 271 6.0 8.0 0.00 0.00 0.00 53 1011.2
20260507043045 39 282 8.0 9.0 0.00 0.00 0.00 49 1011.6
20260507041553 39 271 3.0 8.0 0.00 0.00 0.00 48 1011.6
20260507040054 42 283 2.0 6.0 0.00 0.00 0.00 44 1011.6
20260507034544 40 229 3.0 7.0 0.00 0.00 0.00 47 1011.7
20260507033047 43 244 3.0 6.0 0.00 0.00 0.00 42 1011.8
20260507031544 42 254 5.0 7.0 0.00 0.00 0.00 44 1012.1
20260507030056 45 286 4.0 7.0 0.00 0.00 0.00 39 1012.2
20260507024547 45 283 4.0 6.0 0.00 0.00 0.00 40 1012.3
20260507023046 48 277 3.0 6.0 0.00 0.00 0.00 36 1012.3
20260507021550 50 322 2.0 4.0 0.00 0.00 0.00 31 1012.4
20260507020045 52 0 1.0 2.0 0.00 0.00 0.00 28 1012.4
20260507014558 54 0 0.0 2.0 0.00 0.00 0.00 27 1012.4
20260507013103 55 0 0.0 1.0 0.00 0.00 0.00 25 1012.3
20260507011545 56 77 1.0 3.0 0.00 0.00 0.00 23 1012.3
20260507010046 57 104 2.0 6.0 0.00 0.00 0.00 22 1012.3
20260507004544 58 147 4.0 8.0 0.00 0.00 0.00 22 1012.5
20260507003044 58 139 3.0 7.0 0.00 0.00 0.00 23 1012.8
20260507001606 59 107 3.0 7.0 0.00 0.00 0.00 21 1013.1
20260507000049 59 111 5.0 8.0 0.00 0.00 0.00 21 1013.2
20260506234546 61 209 2.0 7.0 0.00 0.00 0.00 20 1013.5
20260506233050 61 94 6.0 15.0 0.00 0.00 0.00 20 1013.6
20260506231549 59 202 6.0 11.0 0.00 0.00 0.00 21 1013.6
20260506230054 58 208 9.0 14.0 0.00 0.00 0.00 22 1013.7
20260506224544 59 228 4.0 12.0 0.00 0.00 0.00 21 1013.8
20260506223104 58 222 9.0 16.0 0.00 0.00 0.00 22 1014.1
20260506221552 57 215 10.0 16.0 0.00 0.00 0.00 24 1014.3
20260506220045 55 274 8.0 15.0 0.00 0.00 0.00 26 1014.5
20260506214545 55 65 5.0 13.0 0.00 0.00 0.00 25 1014.7
20260506213046 54 294 9.0 13.0 0.00 0.00 0.00 25 1015.1
20260506211546 54 256 10.0 18.0 0.00 0.00 0.00 26 1015.2
20260506210051 55 211 8.0 17.0 0.00 0.00 0.00 24 1015.6
20260506204548 54 236 10.0 14.0 0.00 0.00 0.00 25 1015.7
20260506203047 54 238 11.0 17.0 0.00 0.00 0.00 25 1016.0
20260506201544 54 242 10.0 29.0 0.00 0.00 0.00 27 1016.2
20260506200117 53 217 9.0 16.0 0.00 0.00 0.00 26 1016.5
20260506194553 52 342 6.0 10.0 0.00 0.00 0.00 27 1016.6
20260506193045 52 277 10.0 16.0 0.00 0.00 0.00 26 1016.9
20260506191548 52 253 12.0 18.0 0.00 0.00 0.00 27 1017.2
20260506190049 51 301 2.0 26.0 0.00 0.00 0.00 29 1017.5
20260506184546 51 273 13.0 21.0 0.00 0.00 0.00 28 1017.8
20260506183044 50 327 5.0 13.0 0.00 0.00 0.00 28 1017.9
20260506181544 50 329 11.0 17.0 0.00 0.00 0.00 28 1018.3
20260506180048 49 309 8.0 17.0 0.00 0.00 0.00 28 1018.5
20260506174545 49 267 5.0 18.0 0.00 0.00 0.00 32 1018.6
20260506173102 48 267 10.0 18.0 0.00 0.00 0.00 29 1018.9
20260506171551 48 225 12.0 19.0 0.00 0.00 0.00 29 1019.0
20260506170044 47 325 5.0 21.0 0.00 0.00 0.00 31 1019.1
20260506164543 48 274 9.0 13.0 0.00 0.00 0.00 31 1019.2
20260506163049 47 305 6.0 21.0 0.00 0.00 0.00 34 1019.3
20260506161553 46 262 12.0 19.0 0.00 0.00 0.00 33 1019.4
20260506160053 46 292 10.0 17.0 0.00 0.00 0.00 32 1019.7
20260506154544 45 275 13.0 20.0 0.00 0.00 0.00 33 1019.7
20260506153047 45 337 8.0 17.0 0.00 0.00 0.00 36 1019.8
20260506151546 44 302 7.0 18.0 0.00 0.00 0.00 37 1019.8
20260506150045 43 313 8.0 16.0 0.00 0.00 0.00 38 1019.9
20260506144543 43 258 10.0 14.0 0.00 0.00 0.00 38 1020.0